Find Starlink 5970

NORAD ID: 56450 Int'l Des: 2023-064 Owner: SPXS Country: US Constellation: starlink operational
LEOCIRCULAR

实时位置

正在加载3D地球...

关于 Starlink 5970

正在加载描述...

即将过境

Passes for default location (London). Set your location on the main map for personalized predictions.

高度历史

Loading altitude history...

两行轨道根数

1 56450U 23064C 26125.76239948 -.00229022 00000-0 -20746-1 0 9998
2 56450 69.9987 0.6131 0007057 33.4510 326.7092 14.96537293163790
Epoch: May 5, 2026 • Age: 13 hours

当前状态

高度 579.3 km
速度 7.58 km/s
星下点 42.71°N, 44.55°E
发射日期 May 10, 2023
运行时间 2.9 years
类型 internet

技术详情

分类 Payload
质量 305.00 kg
干质量 290.00 kg
总质量 305.00 kg
长度 0.20 m
直径 2.80 m
跨度 9.00 m
形状 Box + pan
制造商 SPXS
平台类型 Starlink
阶段状态 In Orbit
所有者/国家 SPXS/US

Most Searched